User: anonymous   Login
Location: Unspecified
(0.0000°N, 0.0000°E)
Time: 02:59:32
(UTC+00:00)
Language:

ITOS 1 - Orbit

View from above orbital plane
View from above orbital plane
View from above satellite
View from above satellite

Ground track
Ground track

The orbit data is extracted from the following two-line orbital elements,

1  4320U 70008A   18171.18412663 -.00000046 +00000-0 -85020-5 0  9995
2  4320 101.7809 239.9824 0028615 206.6562 175.7167 12.52049080408538
Epoch (UTC): 20 June 2018 04:25:08
Eccentricity: 0.0028615
inclination: 101.7809°
perigee height: 1433 km
apogee height: 1478 km
right ascension of ascending node: 239.9824°
argument of perigee: 206.6562°
revolutions per day: 12.52049080
mean anomaly at epoch: 175.7167°
orbit number at epoch: 40853

The dashed part of the orbit path shows where the satellite is in the earth's shadow,  

DLR